Location: Newark
(34.6283°N, 36.0776°E)
Time: 05:44:54
(UTC+00:00)

A-11 Canister half - Pass Details

Date: 18 September 2019
Orbit: 1527 x 1682 km, 47.3° (Epoch: 22 October)

Event Time Altitude Azimuth Distance (km) Brightness Sun altitude
Rises 03:02:14 0° 255° (WSW) 4,692 - -4.6°
Exits shadow 03:03:40 - 257° (WSW) 4,248 10.6 -4.3°
Reaches altitude 10° 03:05:22 10° 260° (W) 3,724 10.3 -3.9°
Maximum altitude 03:14:33 54° 337° (NNW) 1,865 9.4 -2.0°
Drops below altitude 10° 03:24:05 10° 53° (NE) 3,845 12.1 -0.1°
Sets 03:27:23 0° 58° (ENE) 4,854 12.8 0.6°
